7 * 24
多渠道服务支持
STARLINK-11444 是 SpaceX Starlink 卫星互联网项目中的一颗低轨卫星,属于第53批发射的星链卫星之一。该卫星运行在约550公里高度的近地轨道,旨在为全球用户提供高速互联网服务。Starlink 项目通过部署大量卫星,构建覆盖全球的宽带网络,特别服务于偏远地区。STARLINK-11444 采用先进推进和通信技术,具备自动避障功能,以确保轨道安全。该项目持续扩展,推动全球互联网接入的普及与创新。
美国
(US)
| 数据来源 | 国际轨道数据 |
| 星历时间: | 2025-11-02T09:20:52+0800 1天前 查看轨道信息 |
| 半长轴: | 6734.51km |
| 偏心率: | 0.0001424 |
| 轨道倾角: | 43.001° |
| 近地点辐角 | 266.643° |
| 升交点赤经 | 217.307° |
| 平近点角 | 93.427° |
| 近地点: | 355.416km |
| 远地点: | 357.334km |
| 周期: | 91.668分钟 |
| 每日圈数: | 15.70883 |